Location: *
(50.3440°N, 18.6237°E)
Time: 18:11:22
(UTC+00:00)

CORIOLIS - Pass Details

Date: 30 November 2020
Orbit: 818 x 839 km, 98.7° (Epoch: 17 January)

Event Time Altitude Azimuth Distance (km) Brightness Sun altitude
Rises 16:03:32 0° 161° (SSE) 3,365 7.4 -11.9°
Reaches altitude 10° 16:05:52 10° 162° (SSE) 2,438 6.6 -12.2°
Maximum altitude 16:11:18 87° 73° (ENE) 845 4.2 -13.1°
Drops below altitude 10° 16:16:47 10° 345° (NNW) 2,466 6.6 -13.9°
Sets 16:19:10 0° 346° (NNW) 3,406 7.3 -14.3°
